�N����,����,�~����,�C��,���x,�C��,����,���ϕ���,�ő�u�ԕ���,�ő厞����,���˗�,�I�_���x,�n�����x,�ő啗���N��,DTYPE
"19/02/18","00:10",0.0,0.0,93.9,1016.6,330.2,1.7,2.6,337.8,0.00,-0.8,5.4,"00:06:08",1
"19/02/18","00:20",0.0,-0.3,93.8,1016.4,310.3,1.2,2.0,317.6,0.00,-1.1,5.5,"00:15:12",1
"19/02/18","00:30",0.0,-0.4,94.2,1016.6,301.1,1.0,1.4,309.5,0.00,-1.2,5.3,"00:29:20",1
"19/02/18","00:40",0.0,-0.3,94.3,1016.6,305.3,1.6,2.6,311.8,0.00,-1.1,5.1,"00:31:12",1
"19/02/18","00:50",0.0,-0.6,93.9,1016.8,332.6,1.3,2.0,336.4,0.00,-1.4,4.9,"00:47:12",1
"19/02/18","01:00",0.0,-1.0,94.3,1016.6,321.4,1.1,2.0,322.5,0.00,-1.8,5.3,"00:55:20",1
"19/02/18","01:10",0.0,-1.3,95.2,1016.6,302.5,1.3,2.0,323.4,0.00,-1.9,5.2,"01:09:44",1
"19/02/18","01:20",0.0,-1.4,95.4,1016.6,310.2,2.0,2.4,315.2,0.00,-2.0,5.0,"01:17:36",1
"19/02/18","01:30",0.0,-1.4,96.1,1016.8,306.5,1.8,3.2,319.2,0.00,-1.9,4.9,"01:24:24",1
"19/02/18","01:40",0.0,-0.5,96.8,1016.6,322.4,2.2,4.0,336.4,0.00,-0.9,4.8,"01:37:52",1
"19/02/18","01:50",0.0,0.4,96.0,1016.8,324.6,3.1,4.5,326.6,0.00,-0.1,5.0,"01:44:20",1
"19/02/18","02:00",0.0,0.5,95.6,1017.3,323.2,3.7,4.9,333.1,0.00,-0.1,4.9,"01:50:40",1
"19/02/18","02:10",0.0,0.3,95.4,1017.1,321.5,2.6,4.3,330.7,0.00,-0.3,4.7,"02:00:26",1
"19/02/18","02:20",0.0,0.2,95.6,1017.5,328.0,2.3,4.0,339.3,0.00,-0.4,4.8,"02:13:48",1
"19/02/18","02:30",0.0,0.1,95.4,1017.5,331.9,2.6,3.6,339.6,0.00,-0.5,4.8,"02:21:28",1
"19/02/18","02:40",0.0,0.2,95.6,1017.3,316.3,1.6,3.7,329.2,0.00,-0.4,4.8,"02:32:02",1
"19/02/18","02:50",0.0,-0.4,94.7,1017.3,304.2,1.0,3.2,333.7,0.00,-1.1,4.6,"02:49:52",1
"19/02/18","03:00",0.0,-1.1,95.7,1017.5,324.3,1.5,2.8,332.8,0.00,-1.7,4.6,"02:50:50",1
"19/02/18","03:10",0.0,-1.3,96.5,1017.5,308.1,1.5,2.1,316.6,0.00,-1.7,4.6,"03:08:00",1
"19/02/18","03:20",0.0,-1.5,96.2,1017.5,318.5,1.8,2.7,330.5,0.00,-2.0,4.5,"03:17:44",1
"19/02/18","03:30",0.0,-1.5,96.7,1017.3,308.4,2.1,3.1,320.5,0.00,-1.9,4.6,"03:23:20",1
"19/02/18","03:40",0.0,-0.8,97.2,1017.3,311.2,1.7,2.4,301.6,0.00,-1.1,4.4,"03:32:56",1
"19/02/18","03:50",0.0,-1.3,95.7,1017.3,329.1,1.7,2.5,344.2,0.00,-1.9,4.5,"03:43:44",1
"19/02/18","04:00",0.0,-1.6,96.9,1017.1,304.9,1.3,2.5,320.7,0.00,-2.0,4.3,"03:54:00",1
"19/02/18","04:10",0.0,-1.5,97.4,1017.1,306.3,1.7,3.1,318.8,0.00,-1.8,4.2,"04:09:12",1
"19/02/18","04:20",0.0,-1.1,97.5,1017.5,295.4,1.6,2.0,315.2,0.00,-1.4,4.2,"04:17:20",1
"19/02/18","04:30",0.0,-0.9,97.1,1017.5,311.0,2.2,2.9,315.1,0.00,-1.3,4.2,"04:21:04",1
"19/02/18","04:40",0.0,-1.0,97.1,1017.1,306.1,1.8,2.5,318.0,0.00,-1.4,4.3,"04:37:04",1
"19/02/18","04:50",0.0,-1.6,96.8,1017.1,321.6,2.1,2.9,320.4,0.00,-2.0,4.4,"04:44:56",1
"19/02/18","05:00",0.0,-2.0,97.6,1016.6,306.4,2.1,2.7,315.7,0.00,-2.3,4.2,"04:59:28",1
"19/02/18","05:10",0.0,-2.1,97.9,1016.8,306.6,2.2,3.1,327.8,0.00,-2.3,4.2,"05:00:02",1
"19/02/18","05:20",0.0,-2.0,97.9,1016.8,310.1,2.5,2.9,325.3,0.00,-2.2,3.9,"05:10:16",1
"19/02/18","05:30",0.0,-2.0,97.7,1017.1,317.0,2.3,2.8,324.4,0.00,-2.3,3.9,"05:21:28",1
"19/02/18","05:40",0.0,-2.0,98.5,1016.8,307.0,2.5,4.1,323.6,0.00,-2.2,4.1,"05:37:20",1
"19/02/18","05:50",0.0,-1.9,97.6,1017.3,308.3,2.2,3.4,325.7,0.00,-2.2,4.0,"05:40:08",1
"19/02/18","06:00",0.0,-2.2,98.0,1017.1,306.4,2.1,2.8,322.2,0.00,-2.4,4.0,"05:52:56",1
"19/02/18","06:10",0.0,-1.9,98.1,1017.1,303.7,2.6,2.9,307.7,0.00,-2.1,3.9,"06:00:48",1
"19/02/18","06:20",0.0,-1.7,97.9,1017.5,301.7,2.7,3.1,310.2,0.00,-1.9,3.9,"06:11:28",1
"19/02/18","06:30",0.0,-1.8,98.5,1017.8,305.6,2.5,3.1,321.3,0.00,-2.0,4.0,"06:21:52",1
"19/02/18","06:40",0.0,-1.8,97.0,1018.5,310.1,2.6,3.4,312.3,0.00,-2.2,3.8,"06:30:16",1
"19/02/18","06:50",0.0,-2.7,97.7,1018.2,312.0,2.7,3.5,323.0,0.00,-3.0,3.9,"06:48:12",1
"19/02/18","07:00",0.0,-2.7,98.8,1018.2,313.5,2.8,3.3,317.8,0.00,-2.8,3.9,"06:52:00",1
"19/02/18","07:10",0.0,-2.1,98.4,1018.0,317.5,3.0,3.5,324.2,0.00,-2.3,3.8,"07:05:40",1
"19/02/18","07:20",0.0,-2.1,98.0,1018.2,312.2,2.7,3.5,324.7,0.00,-2.3,3.9,"07:11:36",1
"19/02/18","07:30",0.0,-1.6,98.2,1018.7,316.6,2.3,3.5,320.2,0.00,-1.8,3.5,"07:25:20",1
"19/02/18","07:40",0.0,-1.2,98.0,1019.0,319.9,1.5,1.9,330.9,0.00,-1.4,3.7,"07:32:24",1
"19/02/18","07:50",0.0,-0.7,98.1,1019.2,310.1,2.1,3.1,324.4,0.01,-0.9,3.7,"07:44:48",1
"19/02/18","08:00",0.0,-0.1,97.7,1019.2,296.5,1.8,3.3,312.3,0.02,-0.4,4.0,"07:57:44",1
"19/02/18","08:10",0.0,0.0,97.4,1019.7,294.3,2.7,4.0,314.0,0.04,-0.3,3.6,"08:04:10",1
"19/02/18","08:20",0.0,0.2,98.3,1020.1,344.9,0.8,0.8,335.7,0.05,0.0,3.8,"08:12:30",1
"19/02/18","08:30",0.0,1.1,96.8,1019.9,306.4,2.3,3.5,315.6,0.06,0.7,3.9,"08:27:52",1
"19/02/18","08:40",0.0,1.5,96.5,1020.1,293.0,2.6,3.4,320.5,0.06,1.0,3.9,"08:32:16",1
"19/02/18","08:50",0.0,1.9,95.6,1020.1,286.9,2.7,3.1,296.7,0.09,1.3,3.9,"08:40:26",1
"19/02/18","09:00",0.0,2.6,94.3,1020.4,273.3,1.8,2.0,301.4,0.12,1.8,4.2,"08:56:12",1
"19/02/18","09:10",0.0,2.6,93.0,1020.4,268.2,1.6,2.2,293.1,0.16,1.6,4.2,"09:08:48",1
"19/02/18","09:20",0.0,3.6,91.6,1020.6,270.5,1.5,1.9,293.6,0.19,2.4,4.4,"09:18:44",1
"19/02/18","09:30",0.0,4.0,88.8,1021.3,268.8,1.8,2.8,313.5,0.22,2.4,4.5,"09:25:12",1
"19/02/18","09:40",0.0,4.0,85.9,1021.5,270.9,2.0,3.1,284.2,0.24,1.9,4.7,"09:37:26",1
"19/02/18","09:50",0.0,4.5,83.7,1022.0,258.3,1.2,1.9,250.8,0.24,2.0,5.0,"09:41:40",1
"19/02/18","10:00",0.0,4.7,82.9,1022.3,275.0,0.7,1.3,284.5,0.18,2.1,5.2,"09:50:16",1
"19/02/18","10:10",0.0,4.7,81.8,1022.3,200.0,0.6,1.2,159.2,0.21,1.9,5.3,"10:08:06",1
"19/02/18","10:20",0.0,5.4,80.7,1022.5,257.3,1.0,3.4,315.5,0.27,2.4,5.5,"10:10:02",1
"19/02/18","10:30",0.0,5.4,79.5,1022.7,268.4,1.7,2.9,311.0,0.29,2.2,5.8,"10:20:08",1
"19/02/18","10:40",0.0,6.3,77.5,1023.0,236.2,0.7,1.6,233.1,0.34,2.7,6.0,"10:34:16",1
"19/02/18","10:50",0.0,6.5,75.1,1022.7,218.8,1.1,2.4,202.9,0.35,2.5,6.2,"10:48:00",1
"19/02/18","11:00",0.0,6.9,74.3,1022.5,197.0,1.0,2.5,196.1,0.34,2.7,6.3,"10:56:48",1
"19/02/18","11:10",0.0,7.4,73.8,1022.5,214.2,1.2,2.8,197.6,0.41,3.1,6.8,"11:01:52",1
"19/02/18","11:20",0.0,7.6,71.8,1022.5,191.8,1.2,2.1,135.8,0.45,2.9,7.1,"11:14:24",1
"19/02/18","11:30",0.0,7.6,70.2,1022.3,172.5,1.7,3.6,231.1,0.44,2.6,7.3,"11:23:12",1
"19/02/18","11:40",0.0,8.6,68.0,1022.7,145.9,1.1,2.5,123.9,0.43,3.1,7.4,"11:38:24",1
"19/02/18","11:50",0.0,8.8,67.0,1022.5,183.5,1.5,2.9,194.5,0.37,3.1,7.6,"11:48:16",1
"19/02/18","12:00",0.0,9.1,67.0,1022.3,224.1,1.5,3.3,199.7,0.39,3.3,7.8,"11:55:44",1
"19/02/18","12:10",0.0,8.8,64.6,1022.0,233.3,2.1,3.6,237.7,0.36,2.5,8.1,"12:03:28",1
"19/02/18","12:20",0.0,8.9,63.9,1021.8,209.4,1.3,3.4,237.3,0.30,2.5,8.4,"12:10:32",1
"19/02/18","12:30",0.0,9.1,63.5,1021.8,169.8,1.3,3.5,124.1,0.28,2.6,8.6,"12:23:44",1
"19/02/18","12:40",0.0,9.4,62.9,1021.3,254.2,1.6,2.9,239.7,0.27,2.7,8.7,"12:33:04",1
"19/02/18","12:50",0.0,9.3,61.5,1021.3,191.1,1.0,2.1,240.1,0.25,2.3,8.7,"12:40:16",1
"19/02/18","13:00",0.0,9.3,60.7,1021.1,232.7,1.5,3.2,227.4,0.23,2.1,8.7,"12:51:36",1
"19/02/18","13:10",0.0,9.6,59.7,1021.1,121.5,1.2,2.8,132.6,0.25,2.2,8.9,"13:06:00",1
"19/02/18","13:20",0.0,10.0,59.4,1020.8,356.4,1.0,2.4,324.5,0.30,2.5,9.0,"13:11:28",1
"19/02/18","13:30",0.0,10.1,58.1,1021.1,355.5,1.1,2.0,325.6,0.34,2.3,9.2,"13:28:24",1
"19/02/18","13:40",0.0,10.2,58.8,1020.6,323.2,2.1,4.7,346.5,0.35,2.5,9.0,"13:34:24",1
"19/02/18","13:50",0.0,10.5,56.6,1020.4,252.3,1.3,3.3,234.5,0.40,2.3,9.4,"13:41:04",1
"19/02/18","14:00",0.0,10.4,56.4,1020.1,243.1,1.5,4.2,228.0,0.41,2.1,9.5,"13:59:04",1
"19/02/18","14:10",0.0,10.9,55.8,1020.1,251.1,1.6,3.7,230.7,0.40,2.5,9.7,"14:01:04",1
"19/02/18","14:20",0.0,11.2,55.4,1020.1,269.3,1.2,2.6,304.4,0.40,2.6,9.9,"14:10:08",1
"19/02/18","14:30",0.0,11.0,55.0,1020.1,167.7,1.2,2.8,129.1,0.38,2.4,9.8,"14:27:44",1
"19/02/18","14:40",0.0,11.7,54.1,1019.7,233.1,0.8,2.4,198.0,0.36,2.8,10.3,"14:39:20",1
"19/02/18","14:50",0.0,11.6,53.4,1019.9,230.5,1.6,3.6,205.1,0.37,2.5,10.1,"14:42:32",1
"19/02/18","15:00",0.0,11.4,51.9,1019.9,251.1,1.2,3.6,237.8,0.28,1.9,10.5,"14:56:40",1
"19/02/18","15:10",0.0,11.8,50.3,1020.1,302.4,2.3,4.0,320.2,0.29,1.8,10.5,"15:02:16",1
"19/02/18","15:20",0.0,12.1,47.1,1020.1,290.3,1.7,4.1,314.1,0.30,1.2,10.7,"15:13:12",1
"19/02/18","15:30",0.0,12.4,43.5,1020.1,281.0,1.8,4.4,335.8,0.28,0.4,10.7,"15:25:28",1
"19/02/18","15:40",0.0,12.0,46.9,1019.9,242.5,2.3,4.3,249.0,0.26,1.1,10.7,"15:35:44",1
"19/02/18","15:50",0.0,11.8,46.6,1019.9,238.4,2.5,5.9,233.3,0.20,0.8,10.7,"15:41:20",1
"19/02/18","16:00",0.0,11.8,47.4,1019.9,255.2,2.1,4.0,232.9,0.15,1.0,10.7,"15:51:36",1
"19/02/18","16:10",0.0,11.8,47.9,1019.9,268.1,1.8,2.8,272.1,0.17,1.2,10.7,"16:02:56",1
"19/02/18","16:20",0.0,12.2,48.3,1019.7,271.3,1.6,2.7,292.9,0.15,1.6,10.5,"16:11:28",1
"19/02/18","16:30",0.0,11.8,48.0,1019.4,247.3,1.6,2.8,239.5,0.12,1.2,10.8,"16:20:40",1
"19/02/18","16:40",0.0,11.9,48.6,1019.4,231.4,1.7,2.9,242.2,0.10,1.5,10.6,"16:32:00",1
"19/02/18","16:50",0.0,11.7,49.2,1019.7,210.1,1.8,3.6,239.3,0.08,1.4,10.7,"16:40:32",1
"19/02/18","17:00",0.0,11.1,51.7,1019.4,213.8,2.3,4.2,203.0,0.03,1.6,10.3,"16:54:48",1
"19/02/18","17:10",0.0,11.0,52.6,1019.4,214.2,1.6,2.7,236.5,0.03,1.7,10.2,"17:02:08",1
"19/02/18","17:20",0.0,11.1,51.8,1019.4,214.2,1.6,3.1,203.2,0.05,1.6,10.1,"17:15:20",1
"19/02/18","17:30",0.0,11.2,52.1,1019.2,210.8,1.2,2.8,207.3,0.05,1.8,10.2,"17:21:20",1
"19/02/18","17:40",0.0,10.8,53.2,1019.4,225.7,1.2,2.6,228.4,0.03,1.7,10.2,"17:31:44",1
"19/02/18","17:50",0.0,10.5,54.3,1019.7,238.5,1.1,2.6,243.0,0.01,1.7,10.0,"17:49:04",1
"19/02/18","18:00",0.0,10.2,54.8,1019.9,266.2,1.2,2.1,249.5,0.00,1.6,9.7,"17:55:28",1
"19/02/18","18:10",0.0,9.8,56.5,1019.9,296.4,1.7,2.4,318.8,0.00,1.6,9.6,"18:08:40",1
"19/02/18","18:20",0.0,8.8,60.4,1019.9,326.6,1.8,2.5,325.6,0.00,1.6,9.4,"18:12:00",1
"19/02/18","18:30",0.0,7.8,65.7,1020.1,303.2,2.0,2.6,324.1,0.00,1.8,9.3,"18:29:52",1
"19/02/18","18:40",0.0,7.3,68.4,1019.9,302.4,2.0,3.6,319.8,0.00,1.9,9.2,"18:32:40",1
"19/02/18","18:50",0.0,6.9,69.9,1020.1,292.2,1.8,2.5,306.5,0.00,1.8,9.2,"18:41:52",1
"19/02/18","19:00",0.0,6.7,71.2,1020.1,284.4,1.8,2.6,295.8,0.00,1.9,9.0,"18:58:08",1
"19/02/18","19:10",0.0,6.6,72.3,1020.1,293.5,2.3,3.3,298.6,0.00,2.0,9.0,"19:09:28",1
"19/02/18","19:20",0.0,6.4,72.0,1020.1,295.1,2.3,3.9,324.4,0.00,1.8,8.8,"19:13:52",1
"19/02/18","19:30",0.0,6.1,73.0,1020.4,304.2,1.0,2.6,321.5,0.00,1.7,8.6,"19:20:32",1
"19/02/18","19:40",0.0,5.0,74.5,1020.1,300.1,2.2,3.9,323.1,0.00,0.9,8.6,"19:32:32",1
"19/02/18","19:50",0.0,5.1,77.1,1019.9,293.7,2.1,3.4,334.2,0.00,1.5,8.3,"19:47:36",1
"19/02/18","20:00",0.0,5.2,78.0,1019.7,285.2,1.8,2.4,299.8,0.00,1.7,8.1,"19:50:08",1
"19/02/18","20:10",0.0,5.3,79.1,1020.4,284.1,2.0,3.4,265.4,0.00,2.0,8.2,"20:09:20",1
"19/02/18","20:20",0.0,5.4,79.2,1020.1,283.3,2.1,3.3,270.2,0.00,2.1,8.0,"20:10:58",1
"19/02/18","20:30",0.0,4.7,78.2,1020.1,308.7,2.2,3.2,322.9,0.00,1.3,7.9,"20:27:04",1
"19/02/18","20:40",0.0,4.5,81.6,1020.4,291.4,1.7,2.2,310.8,0.00,1.7,8.0,"20:34:16",1
"19/02/18","20:50",0.0,4.5,81.4,1020.1,303.0,2.1,3.3,311.7,0.00,1.6,7.5,"20:42:56",1
"19/02/18","21:00",0.0,4.7,82.1,1020.4,287.0,1.8,2.5,312.6,0.00,2.0,7.6,"20:59:30",1
"19/02/18","21:10",0.0,4.1,81.5,1020.1,323.5,2.1,2.9,328.7,0.00,1.3,7.5,"21:03:44",1
"19/02/18","21:20",0.0,3.5,82.3,1020.1,291.1,0.7,1.9,325.4,0.00,0.8,7.5,"21:10:40",1
"19/02/18","21:30",0.0,3.2,84.6,1019.9,291.7,1.5,2.7,322.8,0.00,0.9,7.4,"21:27:04",1
"19/02/18","21:40",0.0,3.2,86.4,1020.1,314.5,1.6,2.6,321.5,0.00,1.2,7.3,"21:30:16",1
"19/02/18","21:50",0.0,3.3,86.1,1020.4,258.1,0.6,2.1,317.7,0.00,1.2,7.1,"21:49:30",1
"19/02/18","22:00",0.0,3.2,87.0,1020.4,318.5,2.2,3.4,325.5,0.00,1.3,7.0,"21:56:08",1
"19/02/18","22:10",0.0,3.3,88.1,1020.4,290.6,1.3,2.0,308.2,0.00,1.6,7.2,"22:00:08",1
"19/02/18","22:20",0.0,3.4,88.2,1020.1,300.9,1.6,2.4,320.9,0.00,1.7,7.0,"22:15:12",1
"19/02/18","22:30",0.0,3.8,89.0,1020.8,288.7,1.5,2.0,273.0,0.00,2.2,7.0,"22:29:38",1
"19/02/18","22:40",0.0,4.0,87.6,1020.6,280.6,1.1,2.1,292.0,0.00,2.2,6.9,"22:31:02",1
"19/02/18","22:50",0.0,4.1,87.4,1021.1,330.1,1.7,3.3,320.6,0.00,2.2,6.9,"22:44:50",1
"19/02/18","23:00",0.0,4.0,88.4,1021.1,315.7,2.0,2.6,320.2,0.00,2.3,6.8,"22:51:04",1
"19/02/18","23:10",0.0,4.3,88.1,1020.6,311.9,2.1,2.7,309.5,0.00,2.5,7.1,"23:07:12",1
"19/02/18","23:20",0.0,4.4,88.3,1020.6,280.0,1.3,2.1,314.3,0.00,2.7,7.0,"23:10:16",1
"19/02/18","23:30",0.0,4.6,88.0,1020.4,293.3,1.8,2.6,317.4,0.00,2.8,6.8,"23:21:28",1
"19/02/18","23:40",0.0,4.8,87.2,1020.6,307.4,1.7,2.2,305.5,0.00,2.9,6.7,"23:33:44",1
"19/02/18","23:50",0.0,4.8,86.8,1020.6,289.9,1.3,2.0,309.6,0.00,2.8,6.6,"23:41:44",1
"19/02/18","24:00",0.0,4.9,86.4,1020.1,302.0,1.7,2.2,310.1,0.00,2.9,7.1,"23:57:20",1
